JST518 YMML-YMLT

Flight info

Callsign JST518
Flight time 0h 47m
Altitude 31000
Route SUNTI H169 IRSOM W105 LT
Aircraft A321/M-SDE3FGHIRWY/LB1

Departure

Time 2026-05-06 02:55
Airport Melbourne Airport (YMML)

Arrival

Time 2026-05-06 03:42
Airport Launceston Airport (YMLT)
Time Latitude Longitude Altitude Speed Heading
2026-05-06 02:40 -37.67130 144.84636 389 ft 0 kts 352°
2026-05-06 02:44 -37.67133 144.84636 400 ft 3 kts 352°
2026-05-06 02:44 -37.67157 144.84640 388 ft 3 kts 353°
2026-05-06 02:45 -37.67178 144.84647 388 ft 3 kts 324°
2026-05-06 02:45 -37.67191 144.84667 388 ft 3 kts 277°
2026-05-06 02:45 -37.67192 144.84681 388 ft 0 kts 259°
2026-05-06 02:49 -37.67193 144.84672 388 ft 3 kts 259°
2026-05-06 02:49 -37.67199 144.84631 387 ft 7 kts 261°
2026-05-06 02:49 -37.67208 144.84558 386 ft 10 kts 262°
2026-05-06 02:50 -37.67201 144.84462 384 ft 12 kts 282°
2026-05-06 02:50 -37.67204 144.84348 383 ft 14 kts 264°
2026-05-06 02:50 -37.67150 144.84260 383 ft 14 kts 349°
2026-05-06 02:50 -37.67056 144.84243 385 ft 13 kts 351°
2026-05-06 02:51 -37.66966 144.84226 387 ft 13 kts 352°
2026-05-06 02:51 -37.66883 144.84213 389 ft 11 kts 353°
2026-05-06 02:51 -37.66809 144.84198 391 ft 10 kts 349°
2026-05-06 02:51 -37.66742 144.84192 391 ft 9 kts 12°
2026-05-06 02:52 -37.66698 144.84258 395 ft 12 kts 74°
2026-05-06 02:52 -37.66681 144.84382 397 ft 17 kts 81°
2026-05-06 02:52 -37.66663 144.84528 397 ft 17 kts 82°
2026-05-06 02:52 -37.66647 144.84670 401 ft 16 kts 81°
2026-05-06 02:53 -37.66611 144.84793 403 ft 14 kts 37°
2026-05-06 02:53 -37.66522 144.84792 406 ft 12 kts 346°
2026-05-06 02:53 -37.66447 144.84777 408 ft 11 kts 359°
2026-05-06 02:53 -37.66363 144.84784 411 ft 14 kts
2026-05-06 02:54 -37.66264 144.84794 410 ft 12 kts
2026-05-06 02:54 -37.66222 144.84728 413 ft 12 kts 275°
2026-05-06 02:54 -37.66211 144.84539 412 ft 49 kts 274°
2026-05-06 02:54 -37.66168 144.83811 413 ft 115 kts 274°
2026-05-06 02:55 -37.66105 144.82597 636 ft 147 kts 276°
2026-05-06 02:55 -37.66088 144.81343 1388 ft 140 kts 276°
2026-05-06 02:55 -37.66016 144.80113 2035 ft 141 kts 277°
2026-05-06 02:55 -37.65927 144.78837 2380 ft 158 kts 278°
2026-05-06 02:56 -37.65824 144.77363 2672 ft 179 kts 278°
2026-05-06 02:56 -37.65711 144.75676 2889 ft 201 kts 276°
2026-05-06 02:56 -37.65592 144.73845 3010 ft 224 kts 276°
2026-05-06 02:56 -37.65472 144.71801 3397 ft 240 kts 273°
2026-05-06 02:57 -37.65834 144.69719 4004 ft 251 kts 243°
2026-05-06 02:57 -37.67048 144.68112 4563 ft 261 kts 218°
2026-05-06 02:57 -37.68590 144.66889 5062 ft 262 kts 215°
2026-05-06 02:57 -37.70145 144.65691 5553 ft 261 kts 214°
2026-05-06 02:58 -37.71743 144.64580 5995 ft 265 kts 204°
2026-05-06 02:58 -37.73565 144.64101 6442 ft 272 kts 185°
2026-05-06 02:58 -37.75484 144.64444 6857 ft 281 kts 165°
2026-05-06 02:58 -37.77250 144.65565 7226 ft 288 kts 153°
2026-05-06 02:59 -37.78978 144.66860 7606 ft 290 kts 152°
2026-05-06 02:59 -37.80719 144.68171 7980 ft 293 kts 152°
2026-05-06 02:59 -37.82455 144.69481 8334 ft 295 kts 152°
2026-05-06 02:59 -37.84252 144.70837 8697 ft 298 kts 152°
2026-05-06 03:00 -37.86019 144.72167 9033 ft 302 kts 153°
2026-05-06 03:00 -37.87832 144.73530 9378 ft 304 kts 152°
2026-05-06 03:00 -37.89661 144.74905 9723 ft 307 kts 152°
2026-05-06 03:00 -37.91509 144.76294 10033 ft 312 kts 153°
2026-05-06 03:01 -37.93400 144.77716 10236 ft 318 kts 153°
2026-05-06 03:01 -37.95331 144.79166 10373 ft 327 kts 153°
2026-05-06 03:01 -37.97311 144.80654 10488 ft 334 kts 152°
2026-05-06 03:01 -37.99320 144.82171 10770 ft 333 kts 152°
2026-05-06 03:02 -38.01236 144.83632 11252 ft 310 kts 153°
2026-05-06 03:02 -38.03004 144.84985 11242 ft 287 kts 153°
2026-05-06 03:02 -38.04709 144.86282 11242 ft 285 kts 153°
2026-05-06 03:02 -38.06409 144.87566 11238 ft 284 kts 153°
2026-05-06 03:03 -38.08113 144.88851 11242 ft 285 kts 153°
2026-05-06 03:03 -38.09827 144.90142 11686 ft 287 kts 153°
2026-05-06 03:03 -38.11546 144.91437 12330 ft 289 kts 153°
2026-05-06 03:03 -38.13287 144.92750 12918 ft 293 kts 154°
2026-05-06 03:04 -38.15048 144.94081 13522 ft 296 kts 154°
2026-05-06 03:04 -38.16830 144.95431 14089 ft 300 kts 154°
2026-05-06 03:04 -38.18636 144.96802 14589 ft 304 kts 154°
2026-05-06 03:04 -38.20461 144.98190 15119 ft 307 kts 154°
2026-05-06 03:05 -38.22303 144.99591 15641 ft 310 kts 153°
2026-05-06 03:05 -38.24164 145.01008 16156 ft 313 kts 153°
2026-05-06 03:05 -38.26044 145.02440 16663 ft 317 kts 153°
2026-05-06 03:05 -38.27944 145.03887 17182 ft 320 kts 153°
2026-05-06 03:06 -38.29861 145.05343 17697 ft 322 kts 153°
2026-05-06 03:06 -38.31797 145.06815 18208 ft 326 kts 153°
2026-05-06 03:06 -38.33746 145.08302 18672 ft 329 kts 153°
2026-05-06 03:06 -38.35711 145.09807 19117 ft 331 kts 152°
2026-05-06 03:07 -38.37690 145.11326 19560 ft 333 kts 152°
2026-05-06 03:07 -38.39685 145.12854 20007 ft 336 kts 152°
2026-05-06 03:07 -38.41696 145.14393 20447 ft 338 kts 152°
2026-05-06 03:07 -38.43732 145.15950 20753 ft 348 kts 152°
2026-05-06 03:08 -38.45848 145.17564 20880 ft 361 kts 152°
2026-05-06 03:08 -38.48047 145.19239 21009 ft 375 kts 152°
2026-05-06 03:08 -38.50348 145.20910 21140 ft 387 kts 157°
2026-05-06 03:08 -38.52863 145.22259 21276 ft 397 kts 165°
2026-05-06 03:09 -38.55516 145.23424 21408 ft 410 kts 165°
2026-05-06 03:09 -38.58257 145.24625 21531 ft 423 kts 165°
2026-05-06 03:09 -38.61083 145.25863 21662 ft 436 kts 165°
2026-05-06 03:09 -38.63987 145.27139 21845 ft 446 kts 164°
2026-05-06 03:10 -38.66937 145.28440 22239 ft 450 kts 164°
2026-05-06 03:10 -38.69906 145.29755 22647 ft 454 kts 164°
2026-05-06 03:10 -38.72907 145.31089 23072 ft 457 kts 164°
2026-05-06 03:10 -38.75915 145.32426 23488 ft 460 kts 164°
2026-05-06 03:11 -38.78950 145.33771 23861 ft 463 kts 164°
2026-05-06 03:11 -38.82003 145.35124 24217 ft 465 kts 164°
2026-05-06 03:11 -38.85072 145.36485 24557 ft 468 kts 164°
2026-05-06 03:11 -38.88078 145.37984 24885 ft 473 kts 157°
2026-05-06 03:12 -38.91056 145.39811 25236 ft 476 kts 156°
2026-05-06 03:12 -38.94043 145.41673 25562 ft 479 kts 156°
2026-05-06 03:12 -38.97041 145.43564 25895 ft 481 kts 156°
2026-05-06 03:12 -39.00052 145.45474 26231 ft 484 kts 156°
2026-05-06 03:13 -39.03076 145.47396 26558 ft 486 kts 156°
2026-05-06 03:13 -39.06116 145.49331 26886 ft 489 kts 156°
2026-05-06 03:13 -39.09171 145.51272 27205 ft 491 kts 156°
2026-05-06 03:13 -39.12242 145.53223 27513 ft 494 kts 156°
2026-05-06 03:14 -39.15328 145.55177 27796 ft 497 kts 156°
2026-05-06 03:14 -39.18444 145.57144 28086 ft 499 kts 156°
2026-05-06 03:14 -39.21569 145.59116 28381 ft 502 kts 156°
2026-05-06 03:14 -39.24713 145.61106 28685 ft 504 kts 156°
2026-05-06 03:15 -39.26840 145.62456 28889 ft 506 kts 156°
2026-05-06 03:15 -39.29963 145.64441 29190 ft 508 kts 156°
2026-05-06 03:15 -39.33179 145.66488 29499 ft 510 kts 156°
2026-05-06 03:15 -39.36329 145.68501 29788 ft 512 kts 156°
2026-05-06 03:16 -39.39560 145.70570 30200 ft 512 kts 156°
2026-05-06 03:16 -39.42709 145.72586 30544 ft 511 kts 156°
2026-05-06 03:16 -39.45891 145.74620 30882 ft 511 kts 156°
2026-05-06 03:16 -39.49077 145.76659 31007 ft 509 kts 156°
2026-05-06 03:17 -39.52216 145.78668 31034 ft 500 kts 156°
2026-05-06 03:17 -39.58431 145.82653 31034 ft 497 kts 156°
2026-05-06 03:18 -39.64615 145.86632 31031 ft 497 kts 156°
2026-05-06 03:18 -39.70810 145.90625 31024 ft 497 kts 156°
2026-05-06 03:19 -39.76996 145.94618 31028 ft 497 kts 156°
2026-05-06 03:19 -39.83192 145.98622 31021 ft 497 kts 156°
2026-05-06 03:20 -39.92484 146.04645 31018 ft 497 kts 156°
2026-05-06 03:20 -39.98678 146.08672 31009 ft 498 kts 156°
2026-05-06 03:21 -40.04874 146.12709 31003 ft 498 kts 156°
2026-05-06 03:21 -40.11074 146.16757 31023 ft 498 kts 156°
2026-05-06 03:22 -40.17274 146.20817 31019 ft 499 kts 156°
2026-05-06 03:22 -40.23476 146.24881 31006 ft 499 kts 156°
2026-05-06 03:23 -40.29677 146.28963 30999 ft 499 kts 156°
2026-05-06 03:23 -40.35885 146.33052 31010 ft 499 kts 155°
2026-05-06 03:24 -40.42093 146.37133 30995 ft 500 kts 155°
2026-05-06 03:24 -40.48407 146.41293 30978 ft 513 kts 155°
2026-05-06 03:25 -40.54793 146.45531 30976 ft 515 kts 155°
2026-05-06 03:25 -40.61186 146.49777 30408 ft 516 kts 155°
2026-05-06 03:26 -40.64378 146.51900 29066 ft 511 kts 155°
2026-05-06 03:26 -40.67521 146.53997 27734 ft 504 kts 155°
2026-05-06 03:26 -40.70630 146.56072 26488 ft 495 kts 155°
2026-05-06 03:26 -40.73676 146.58106 25325 ft 489 kts 155°
2026-05-06 03:27 -40.76694 146.60120 24366 ft 484 kts 155°
2026-05-06 03:27 -40.79679 146.62115 23533 ft 478 kts 155°
2026-05-06 03:27 -40.82618 146.64086 22825 ft 467 kts 155°
2026-05-06 03:27 -40.85486 146.66010 22347 ft 460 kts 155°
2026-05-06 03:28 -40.88333 146.67918 21822 ft 457 kts 155°
2026-05-06 03:28 -40.91164 146.69811 21305 ft 455 kts 155°
2026-05-06 03:28 -40.93985 146.71692 20779 ft 453 kts 155°
2026-05-06 03:28 -40.96796 146.73572 20250 ft 452 kts 155°
2026-05-06 03:29 -40.99597 146.75455 19697 ft 452 kts 155°
2026-05-06 03:29 -41.02394 146.77341 19143 ft 451 kts 155°
2026-05-06 03:29 -41.05212 146.79241 18269 ft 458 kts 155°
2026-05-06 03:29 -41.08007 146.81132 17420 ft 444 kts 155°
2026-05-06 03:30 -41.10721 146.82976 16388 ft 434 kts 155°
2026-05-06 03:30 -41.13381 146.84785 15396 ft 426 kts 156°
2026-05-06 03:30 -41.15986 146.86553 14763 ft 416 kts 156°
2026-05-06 03:30 -41.18511 146.88266 14342 ft 401 kts 156°
2026-05-06 03:31 -41.20962 146.89926 13817 ft 390 kts 157°
2026-05-06 03:31 -41.23346 146.91540 13269 ft 379 kts 157°
2026-05-06 03:31 -41.25666 146.93112 12770 ft 369 kts 157°
2026-05-06 03:31 -41.27923 146.94643 12287 ft 360 kts 157°
2026-05-06 03:32 -41.30123 146.96140 11809 ft 351 kts 157°
2026-05-06 03:32 -41.32258 146.97595 11338 ft 346 kts 157°
2026-05-06 03:32 -41.34418 146.99066 10903 ft 345 kts 157°
2026-05-06 03:32 -41.36547 147.00517 10430 ft 342 kts 158°
2026-05-06 03:33 -41.38602 147.01921 10085 ft 331 kts 158°
2026-05-06 03:33 -41.40615 147.03299 9835 ft 320 kts 158°
2026-05-06 03:33 -41.42606 147.04661 9711 ft 323 kts 158°
2026-05-06 03:33 -41.44607 147.06026 9572 ft 323 kts 158°
2026-05-06 03:34 -41.46601 147.07386 9392 ft 323 kts 158°
2026-05-06 03:34 -41.48594 147.08747 8953 ft 319 kts 158°
2026-05-06 03:34 -41.50564 147.10094 8506 ft 316 kts 157°
2026-05-06 03:34 -41.52519 147.11435 8061 ft 317 kts 157°
2026-05-06 03:35 -41.54518 147.12808 7670 ft 318 kts 157°
2026-05-06 03:35 -41.56450 147.14136 7273 ft 319 kts 157°
2026-05-06 03:35 -41.58438 147.15498 6998 ft 314 kts 157°
2026-05-06 03:35 -41.60345 147.16806 6571 ft 311 kts 156°
2026-05-06 03:36 -41.62263 147.18126 6052 ft 308 kts 156°
2026-05-06 03:36 -41.64165 147.19435 5457 ft 308 kts 157°
2026-05-06 03:36 -41.66050 147.20732 5086 ft 298 kts 156°
2026-05-06 03:36 -41.67829 147.21964 4986 ft 278 kts 156°
2026-05-06 03:37 -41.69416 147.23318 5018 ft 267 kts 140°
2026-05-06 03:37 -41.70533 147.25234 5008 ft 260 kts 115°
2026-05-06 03:37 -41.71028 147.27518 4954 ft 255 kts 90°
2026-05-06 03:37 -41.70867 147.29848 4388 ft 251 kts 62°
2026-05-06 03:38 -41.69843 147.31621 3762 ft 237 kts 24°
2026-05-06 03:38 -41.68381 147.32218 3522 ft 209 kts 353°
2026-05-06 03:38 -41.67048 147.31826 3323 ft 190 kts 328°
2026-05-06 03:38 -41.65942 147.30904 3100 ft 187 kts 323°
2026-05-06 03:39 -41.64845 147.29960 2844 ft 187 kts 324°
2026-05-06 03:39 -41.63763 147.29029 2614 ft 181 kts 324°
2026-05-06 03:39 -41.62739 147.28151 2356 ft 168 kts 326°
2026-05-06 03:39 -41.61816 147.27360 2146 ft 148 kts 326°
2026-05-06 03:40 -41.60976 147.26639 1943 ft 140 kts 325°
2026-05-06 03:40 -41.60178 147.25954 1758 ft 135 kts 324°
2026-05-06 03:40 -41.59384 147.25270 1593 ft 137 kts 327°
2026-05-06 03:40 -41.58584 147.24577 1361 ft 137 kts 328°
2026-05-06 03:41 -41.57782 147.23893 1186 ft 137 kts 328°
2026-05-06 03:41 -41.56991 147.23223 1067 ft 134 kts 329°
2026-05-06 03:41 -41.56196 147.22530 921 ft 137 kts 328°
2026-05-06 03:41 -41.55379 147.21853 681 ft 135 kts 329°
2026-05-06 03:42 -41.54644 147.21220 595 ft 110 kts 329°
2026-05-06 03:42 -41.54151 147.20795 591 ft 40 kts 326°
2026-05-06 03:42 -41.54037 147.20653 590 ft 16 kts 266°
2026-05-06 03:42 -41.54096 147.20565 584 ft 13 kts 177°
2026-05-06 03:43 -41.54174 147.20623 583 ft 14 kts 147°
2026-05-06 03:43 -41.54227 147.20670 584 ft 8 kts 146°
2026-05-06 03:43 -41.54260 147.20701 584 ft 5 kts 146°
2026-05-06 03:43 -41.54286 147.20724 584 ft 4 kts 145°
2026-05-06 03:44 -41.54312 147.20746 584 ft 5 kts 151°
2026-05-06 03:44 -41.54324 147.20734 584 ft 3 kts 241°
2026-05-06 03:44 -41.54322 147.20710 584 ft 3 kts 283°
2026-05-06 03:44 -41.54318 147.20691 583 ft 2 kts 289°
2026-05-06 03:45 -41.54313 147.20677 583 ft 1 kts 293°
2026-05-06 03:45 -41.54313 147.20676 583 ft 0 kts 293°
2026-05-06 03:48 0.00633 0.00000 53808 ft 0 kts